SCP
0 0 0 0 0 0 0 0 0 0 0 0 0 0 0 0 0 0 0 0 0 0
0 0 0 0 0 0 0 0 0 0 0 0 0 0 0 0 0 0 0 0 0 0
0 0 0 0 0 0 0 0 0 0 0 0 0 0 0 0 0 0 0 0 0 0
0 0 0 0 0 0 0 0 0 0 0 0 0 0 0 0 0 0 0 0 0 0
0 0 0 0 0 0 0 0 0 0 0 0 0 0 0 0 0 0 0 0 0 0
0 0 0 0 0 0 0 0 0 0 0 0 0 0 0 0 0 0 0 0 0 0
0 0 0 0 0 0 0 0 0 0 0 0 0 0 0 0 0 0 0 0 0 0
0 0 0 0 0 0 0 0 0 0 0 0 0 0 0 0 0 0 0 0 0 0
0 0 0 0 0 0 0 0 0 0 0 0 0 0 0 0 0 0 0 0 0 0
0 0 0 0 0 0 0 0 0 0 0 0 0 0 0 0 0 0 0 0 0 0
0 0 0 0 0 0 0 0 0 0 0 0 0 0 0 0 0 0 0 0 0 0
0 0 0 0 0 0 0 0 0 0 0 0 0 0 0 0 0 0 0 0 0 0
0 0 0 0 0 0 0 0 0 0 0 0 0 0 0 0 0 0 0 0 0 0
0 0 0 0 0 0 0 0 0 0 0 0 0 0 0 0 0 0 0 0 0 0
Wind_Speed_500mb
41 41 39 36 33 31 30 28 28 28 30 32 34 36 36 37 39 39 40 41 44 47
40 38 35 33 30 29 28 28 29 30 32 34 36 38 39 39 40 41 42 43 45 47
39 36 34 32 30 29 29 30 32 33 34 35 36 38 39 39 39 41 42 44 46 47
43 40 37 34 32 31 31 31 32 34 35 35 36 38 39 40 40 42 41 41 45 44
48 44 40 37 34 32 32 32 33 34 36 36 36 36 38 39 41 44 45 45 47 47
52 47 43 39 36 35 34 34 36 38 38 38 38 39 42 47 49 52 53 52 52 51
54 48 42 39 39 38 39 39 40 40 40 42 44 45 47 50 54 56 57 58 56 55
52 46 41 44 51 46 43 42 42 43 44 45 44 41 43 47 51 55 56 55 54 55
53 51 51 48 46 46 45 45 46 45 44 44 43 43 45 49 54 56 59 60 57 56
57 54 55 48 49 49 47 47 46 45 45 47 47 47 50 51 56 59 61 62 62 61
67 59 56 54 54 51 48 48 47 46 48 53 53 49 51 54 60 64 66 65 63 64
56 57 61 56 50 46 44 44 47 50 52 54 56 52 54 57 63 68 69 66 65 65
63 63 55 48 42 42 43 45 48 52 54 56 59 54 55 56 60 65 67 68 67 62
65 56 49 45 43 41 41 44 49 54 57 58 58 59 56 56 61 65 66 67 65 65
Wind_Direction_500mb
255 257 256 253 252 253 256 261 267 273 280 284 287 289 289 288 288 288 288 287 286 284
255 252 250 250 252 256 263 271 278 282 286 289 290 291 291 290 289 289 287 285 284 283
253 250 249 251 256 262 272 280 286 289 291 292 293 294 295 295 294 292 290 289 286 285
253 250 250 254 262 270 277 283 288 293 296 297 296 294 294 294 293 293 293 293 291 291
252 251 255 260 266 273 279 286 291 294 294 293 292 293 294 294 295 296 296 295 294 295
253 255 259 265 271 277 281 286 290 292 293 294 295 295 296 296 296 295 295 294 294 295
253 256 260 266 273 279 282 282 285 287 288 289 291 293 294 294 294 293 293 293 293 293
253 257 263 277 278 273 275 280 285 287 289 292 293 297 298 299 298 297 297 297 297 295
249 255 261 266 270 272 275 281 285 289 290 292 294 299 300 300 299 299 300 300 299 296
252 263 267 268 271 271 275 279 282 285 288 292 294 298 299 298 297 298 299 300 301 299
263 267 268 268 267 271 273 275 279 283 287 289 292 295 296 297 296 296 297 297 297 297
270 268 269 263 266 268 270 277 284 287 289 291 294 297 296 297 296 296 296 296 295 296
278 260 260 262 263 270 277 281 287 291 293 295 296 299 298 298 296 295 295 294 295 298
276 259 258 262 267 273 280 291 294 295 296 296 299 301 299 297 294 292 291 291 294 297
Wind_Speed_850mb
41 41 39 36 33 31 30 28 28 28 30 32 34 36 36 37 39 39 40 41 44 47
40 38 35 33 30 29 28 28 29 30 32 34 36 38 39 39 40 41 42 43 45 47
39 36 34 32 30 29 29 30 32 33 34 35 36 38 39 39 39 41 42 44 46 47
43 40 37 34 32 31 31 31 32 34 35 35 36 38 39 40 40 42 41 41 45 44
48 44 40 37 34 32 32 32 33 34 36 36 36 36 38 39 41 44 45 45 47 47
52 47 43 39 36 35 34 34 36 38 38 38 38 39 42 47 49 52 53 52 52 51
54 48 42 39 39 38 39 39 40 40 40 42 44 45 47 50 54 56 57 58 56 55
52 46 41 44 51 46 43 42 42 43 44 45 44 41 43 47 51 55 56 55 54 55
53 51 51 48 46 46 45 45 46 45 44 44 43 43 45 49 54 56 59 60 57 56
57 54 55 48 49 49 47 47 46 45 45 47 47 47 50 51 56 59 61 62 62 61
67 59 56 54 54 51 48 48 47 46 48 53 53 49 51 54 60 64 66 65 63 64
56 57 61 56 50 46 44 44 47 50 52 54 56 52 54 57 63 68 69 66 65 65
63 63 55 48 42 42 43 45 48 52 54 56 59 54 55 56 60 65 67 68 67 62
65 56 49 45 43 41 41 44 49 54 57 58 58 59 56 56 61 65 66 67 65 65
Wind_Direction_850mb
255 257 256 253 252 253 256 261 267 273 280 284 287 289 289 288 288 288 288 287 286 284
255 252 250 250 252 256 263 271 278 282 286 289 290 291 291 290 289 289 287 285 284 283
253 250 249 251 256 262 272 280 286 289 291 292 293 294 295 295 294 292 290 289 286 285
253 250 250 254 262 270 277 283 288 293 296 297 296 294 294 294 293 293 293 293 291 291
252 251 255 260 266 273 279 286 291 294 294 293 292 293 294 294 295 296 296 295 294 295
253 255 259 265 271 277 281 286 290 292 293 294 295 295 296 296 296 295 295 294 294 295
253 256 260 266 273 279 282 282 285 287 288 289 291 293 294 294 294 293 293 293 293 293
253 257 263 277 278 273 275 280 285 287 289 292 293 297 298 299 298 297 297 297 297 295
249 255 261 266 270 272 275 281 285 289 290 292 294 299 300 300 299 299 300 300 299 296
252 263 267 268 271 271 275 279 282 285 288 292 294 298 299 298 297 298 299 300 301 299
263 267 268 268 267 271 273 275 279 283 287 289 292 295 296 297 296 296 297 297 297 297
270 268 269 263 266 268 270 277 284 287 289 291 294 297 296 297 296 296 296 296 295 296
278 260 260 262 263 270 277 281 287 291 293 295 296 299 298 298 296 295 295 294 295 298
276 259 258 262 267 273 280 291 294 295 296 296 299 301 299 297 294 292 291 291 294 297